Weather Roundup
Issued by NWS

Home | Current Version | Previous Version | Text Only | Print | Product List | Glossary On
Versions: 1 2 3 4 5 6 7 8 9 10 11 12 13 14 15 16 17 18 19 20 21 22 23 24 25 26 27 28 29 30 31 32 33 34 35 36 37 38 39 40 41 42 43 44 45 46 47 48 49 50
275
NZUS93 KARX 250810
HRRWXR

CURRENT HOURLY OBSERVATIONS ACROSS
MUCH OF THE UPPER MISSISSIPPI VALLEY
NATIONAL WEATHER SERVICE LA CROSSE WI
300 AM CDT SUN JUN 25 2017


...SOUTHEAST MINNESOTA...


CITY           SKY/WX    TMP DP  RH WIND       PRES   REMARKS
ROCHESTER      CLEAR     49  46  90 W9        30.09F
ROCHESTER/MAYO FAIR      51  46  80 W6        30.09S
WINONA         CLEAR     52  46  82 NW6       30.07R
AUSTIN         CLEAR     52  45  76 W9        30.10S
ALBERT LEA     CLEAR     52  45  76 W5        30.12S
DODGE CENTER   CLEAR     52  45  76 W8        30.09F
PRESTON        CLEAR     49  44  81 W8        30.09S
OWATONNA       CLEAR     52  46  82 W8        30.10S
FARIBAULT      PTCLDY    54  48  82 W8        30.10S
$$

...ELSEWHERE IN MINNESOTA...


CITY           SKY/WX    TMP DP  RH WIND       PRES   REMARKS
MINNEAPOLIS    CLOUDY    56  47  71 NW9       30.07S
INTNL FALLS    LGT RAIN  52  49  89 NW8       30.04S
DULUTH         CLOUDY    53  50  89 NW7       30.00R
RED WING       MOCLDY    54  46  76 W5        30.06S
REDWOOD FALLS  CLOUDY    55  44  66 NW14G21   30.15S
MANKATO        CLEAR     53  47  79 W13       30.13S
WORTHINGTON    CLEAR     50  45  83 W9        30.20S
FAIRMONT       PTCLDY    52  45  77 NW10      30.15F
$$

...SOUTHWEST WISCONSIN...


CITY           SKY/WX    TMP DP  RH WIND       PRES   REMARKS
LA CROSSE      CLEAR     55  50  83 CALM      30.05S
PRAIRIE DU CHI CLEAR     53  46  78 CALM      30.08F
BOSCOBEL       CLEAR     51  49  92 S6        30.07F
LONE ROCK      CLEAR     52  49  89 W6        30.06S
PLATTEVILLE    CLEAR     51  51 100 W6        30.08S
FORT MC COY    CLEAR     43  43 100 CALM      30.05S
CAMP DOUGLAS   CLEAR     49  47  93 W8        30.02S
MAUSTON-NEW LI SUNNY     52  48  86 W5        30.03R
VIROQUA        FAIR      50  48  95 W8        30.06S
WIS DELLS      CLEAR     49  46  89 SW3       30.04S
$$

...ELSEWHERE IN WISCONSIN...


CITY           SKY/WX    TMP DP  RH WIND       PRES   REMARKS
MILWAUKEE      CLEAR     55  49  80 W9        30.02S
MADISON        CLEAR     53  49  86 VRB7      30.03F
GREEN BAY      LGT RAIN  53  53 100 SW3       29.96F
EAU CLAIRE     CLEAR     51  48  89 W7        30.02S
BLACK RVR FLS  FAIR      44  44 100 S3        30.03S
MEDFORD        PTCLDY    48  47  94 W7        29.99S
WAUSAU         MOCLDY    51  48  89 W12       29.96F
WIS RAPIDS     CLEAR     50  46  86 W8        30.02S
MARSHFIELD     CLEAR     49  45  86 W7        29.99F
RICE LAKE      CLEAR     51  48  89 W7        30.04F
$$

...NORTHEAST IOWA...


CITY           SKY/WX    TMP DP  RH WIND       PRES   REMARKS
WATERLOO       CLEAR     51  45  79 W8        30.12S
DUBUQUE        CLEAR     52  48  86 W7        30.10S
DECORAH        CLEAR     50  46  87 VRB3      30.08F
MASON CITY     CLEAR     51  43  74 W10       30.15F
CHARLES CITY   CLEAR     50  48  93 W7        30.12S
OELWEIN        PTCLDY    50  46  87 W7        30.12S
$$

...ELSEWHERE IN IOWA...


CITY           SKY/WX    TMP DP  RH WIND       PRES   REMARKS
DES MOINES     PTCLDY    54  46  74 W5        30.17S
IOWA CITY      CLEAR     52  45  77 W5        30.14S
FORT DODGE     PTCLDY    48  39  71 CALM      30.19S
MARSHALLTOWN   PTCLDY    48  45  89 W6        30.15S
CEDAR RAPIDS   CLEAR     48  46  93 NW6       30.12S
$$

...NORTHERN ILLINOIS...


CITY           SKY/WX    TMP DP  RH WIND       PRES   REMARKS
CHICAGO-OHARE  PTCLDY    57  47  69 W9        30.05S
CHICAGO-MIDWAY CLEAR     60  47  61 W10       30.05S
MOLINE         CLEAR     54  49  83 CALM      30.11S
ROCKFORD       CLEAR     53  49  86 W6        30.09S
PEORIA         PTCLDY    56  50  80 CALM      30.12S
$$

NOTE: "FAIR" INDICATES FEW OR NO CLOUDS BELOW 12,000 FEET WITH NO
SIGNIFICANT WEATHER AND/OR OBSTRUCTIONS TO VISIBILITY. WIND
SPEEDS ARE IN MILES-PER-HOUR.




USA.gov is the U.S. government's official web portal to all federal, state and local government web resources and services.